Wetterstats.de || Aktuelle Messwerte || Aktuelle Wetterkarten NEU! || Radar / Satellit NEU! || Wetterarchiv || Langzeitwerte NEU! || Klim. Kenntage || Met. Ereignisse || Agrarwerte || Echtzeitwerte

Monatsübersicht für Juli 2020 Diagramm
 
Wetter Information zur Wetteranzeige
Zeitraffer
Tageslänge (hh:mm)
Höchsttemperatur in °C
Uhrzeit
Tiefsttemperatur in °C
Uhrzeit
Luftfeuchte (max., in %)
Uhrzeit
Luftfeuchte (min., in %)
Uhrzeit
Luftdruck (max., in hPa)
Uhrzeit
Luftdruck (min., in hPa)
Uhrzeit
Luftdruck (Ø, in hPa)
Regenrate (max, mm/h)
Uhrzeit
Niederschlag in mm
Verdunstung in mm
Solar in W/m² (Ø)
Solar in W/m² (max.)
UV-Index (max.)
Sonnenscheindauer (hh:mm)
Windrichtung (Ø)
Windstärke (Ø in km/h)
Windstärke (Ø in bft)
Windböe (max., in km/h)
Uhrzeit
Windböe (max., in bft)
Uhrzeit
Taupunkt (max., in °C)
Uhrzeit
Taupunkt (min., in °C)
Uhrzeit
Windchill (min., in °C)
Uhrzeit
Gewitterindex (max.)
Uhrzeit
Waldbrandindex (max.)
Uhrzeit
Graslandfeuerindex (max.)
Uhrzeit
Staubsturm-Index (max.)
Uhrzeit
01
Zeitraffer
16:49
24.2
10:15 Uhr
15.9
01:00 Uhr

93
23:20 Uhr
58
10:20 Uhr
1007.2
14:30 Uhr

1003.8
21:45 Uhr
1006.3
38,400
22:20 Uhr
15,800
2.235
215
781
10:45 Uhr
4.5
10:45 Uhr

03:10:00
1,9
0
25,7
09:50 Uhr

4
17.8
19:25 Uhr
10.2
00:30 Uhr
15.9
01:00 Uhr
11
22:15 Uhr

00:00 Uhr

00:00 Uhr

00:00 Uhr
02
Zeitraffer
16:48
25.4
17:15 Uhr
16.1
04:20 Uhr

95
05:05 Uhr
53
18:00 Uhr
1009.7
22:45 Uhr

1005.7
00:15 Uhr
1008.4
4,800
00:45 Uhr
1,200
3.124
298
967
14:40 Uhr
5.7
12:25 Uhr

05:20:00
1,6
0
19,3
12:25 Uhr

3
17.2
09:30 Uhr
14.2
23:15 Uhr
16.1
04:20 Uhr
11
00:35 Uhr

00:00 Uhr

00:00 Uhr

00:00 Uhr
03
Zeitraffer
16:46
24.2
17:00 Uhr
15.6
04:40 Uhr

93
02:25 Uhr
47
13:30 Uhr
1015.8
23:15 Uhr

1009.7
00:05 Uhr
1013.3
2,400
01:00 Uhr
0,400
3.785
325
969
13:25 Uhr
5.7
13:10 Uhr

06:40:00
3,1
1
27,4
13:30 Uhr

4
15.4
01:15 Uhr
11.4
18:10 Uhr
15.6
04:40 Uhr
9
00:40 Uhr

00:00 Uhr

00:00 Uhr

00:00 Uhr
04
Zeitraffer
16:45
27.6
15:05 Uhr
12.2
04:05 Uhr

92
02:45 Uhr
38
15:10 Uhr
1016.0
01:15 Uhr

1011.3
20:45 Uhr
1013.9
0,000
00:05 Uhr
0,000
4.496
379
1039
15:00 Uhr
6.2
12:50 Uhr

07:50:00
3,5
1
32,2
22:10 Uhr

5
14.9
10:05 Uhr
10.7
04:00 Uhr
12.2
04:05 Uhr
8
22:25 Uhr

00:00 Uhr

00:00 Uhr

00:00 Uhr
05
Zeitraffer
16:43
28.2
17:25 Uhr
19.9
23:55 Uhr

88
23:50 Uhr
51
17:25 Uhr
1011.8
00:05 Uhr

1007.0
18:45 Uhr
1009.3
2,400
20:40 Uhr
0,400
3.581
274
1032
12:20 Uhr
6.9
12:10 Uhr

03:55:00
4,5
1
35,4
16:00 Uhr

5
18.9
21:25 Uhr
13.9
03:50 Uhr
19.9
23:55 Uhr
13
22:15 Uhr

00:00 Uhr

00:00 Uhr

00:00 Uhr
06
Zeitraffer
16:42
23.6
15:35 Uhr
13.7
23:55 Uhr

93
03:55 Uhr
37
15:40 Uhr
1015.4
23:30 Uhr

1006.6
04:45 Uhr
1010.0
2,400
01:50 Uhr
1,400
4.166
342
964
12:25 Uhr
5.7
12:45 Uhr

06:50:00
5,9
1
35,4
15:40 Uhr

5
17.7
00:10 Uhr
7.4
15:25 Uhr
13.7
23:55 Uhr
12
00:05 Uhr

00:00 Uhr

00:00 Uhr

00:00 Uhr
07
Zeitraffer
16:40
21.1
15:05 Uhr
10.2
05:10 Uhr

91
05:15 Uhr
40
15:10 Uhr
1019.0
11:15 Uhr

1015.3
22:30 Uhr
1017.4
0,000
00:05 Uhr
0,000
3.404
316
1057
12:40 Uhr
5.7
13:15 Uhr

05:20:00
3,9
1
29,0
14:10 Uhr

4
10.8
07:25 Uhr
6.3
15:10 Uhr
10.2
05:10 Uhr
2
00:05 Uhr

00:00 Uhr

00:00 Uhr

00:00 Uhr
08
Zeitraffer
16:38
17.8
14:15 Uhr
11.7
05:05 Uhr

92
02:10 Uhr
69
00:05 Uhr
1017.1
23:45 Uhr

1015.3
06:00 Uhr
1015.8
2,400
00:40 Uhr
1,400
1.245
144
536
14:05 Uhr
4.7
14:10 Uhr

00:45:00
1,1
0
19,3
00:05 Uhr

3
13.7
16:45 Uhr
9.9
00:05 Uhr
11.7
05:05 Uhr
5
14:20 Uhr

00:00 Uhr

00:00 Uhr

00:00 Uhr
09
Zeitraffer
16:37
20.6
12:20 Uhr
12.7
05:45 Uhr

94
15:55 Uhr
66
12:30 Uhr
1017.1
00:05 Uhr

1010.6
20:00 Uhr
1014.3
2,400
14:00 Uhr
3,800
1.524
155
649
16:40 Uhr
4.0
12:05 Uhr

00:55:00
1,2
0
22,5
12:20 Uhr

4
18.3
18:55 Uhr
11.5
02:30 Uhr
12.7
05:45 Uhr
11
22:10 Uhr

00:00 Uhr

00:00 Uhr

00:00 Uhr
10
Zeitraffer
16:35
28.2
13:35 Uhr
14.3
23:55 Uhr

95
04:00 Uhr
53
17:20 Uhr
1016.5
23:45 Uhr

1005.3
14:15 Uhr
1009.8
2,400
10:30 Uhr
0,200
2.540
211
858
12:20 Uhr
5.2
12:20 Uhr

02:45:00
3,4
1
38,6
19:35 Uhr

5
20.9
12:10 Uhr
11.2
23:45 Uhr
14.3
23:55 Uhr
12
12:10 Uhr

00:00 Uhr

00:00 Uhr

00:00 Uhr
11
Zeitraffer
16:33
21.4
16:30 Uhr
10.1
23:55 Uhr

92
05:05 Uhr
41
17:20 Uhr
1024.4
23:45 Uhr

1016.8
00:05 Uhr
1021.5
0,000
00:05 Uhr
0,000
3.581
347
1020
12:25 Uhr
5.8
12:40 Uhr

06:55:00
2,2
1
20,9
14:35 Uhr

4
11.2
00:10 Uhr
7.1
17:20 Uhr
10.1
23:55 Uhr
3
00:05 Uhr

00:00 Uhr

00:00 Uhr

00:00 Uhr
12
Zeitraffer
16:31
23.0
15:50 Uhr
6.5
05:40 Uhr

93
04:55 Uhr
34
15:55 Uhr
1026.8
09:00 Uhr

1024.6
00:05 Uhr
1026.1
0,000
00:05 Uhr
0,000
3.785
367
971
12:35 Uhr
5.5
12:45 Uhr

07:55:00
2,0
0
24,1
15:55 Uhr

4
11.5
09:45 Uhr
5.4
04:35 Uhr
6.5
05:40 Uhr
2
07:45 Uhr

00:00 Uhr

00:00 Uhr

00:00 Uhr
13
Zeitraffer
16:29
24.7
15:35 Uhr
10.4
04:15 Uhr

87
23:45 Uhr
41
15:50 Uhr
1026.7
00:15 Uhr

1019.9
23:30 Uhr
1023.7
0,000
00:05 Uhr
0,000
3.277
330
1022
13:10 Uhr
6.0
13:05 Uhr

06:50:00
0,9
0
16,1
10:45 Uhr

3
11.9
20:30 Uhr
7.9
01:00 Uhr
10.4
04:15 Uhr
3
15:40 Uhr

00:00 Uhr

00:00 Uhr

00:00 Uhr
14
Zeitraffer
16:26
29.0
15:50 Uhr
9.7
04:45 Uhr

93
04:40 Uhr
30
16:50 Uhr
1019.8
00:05 Uhr

1011.5
20:30 Uhr
1015.3
0,000
00:05 Uhr
0,000
4.293
364
891
13:30 Uhr
5.5
12:30 Uhr

09:10:00
1,7
0
24,1
11:35 Uhr

4
12.9
07:50 Uhr
8.5
04:35 Uhr
9.7
04:45 Uhr
4
09:50 Uhr

00:00 Uhr

00:00 Uhr

00:00 Uhr
15
Zeitraffer
16:24
23.3
12:55 Uhr
12.4
23:15 Uhr

94
22:05 Uhr
53
00:20 Uhr
1013.7
23:15 Uhr

1010.6
04:45 Uhr
1011.8
2,400
16:40 Uhr
3,000
1.855
170
923
12:50 Uhr
4.9
12:50 Uhr

02:40:00
1,4
0
22,5
14:00 Uhr

4
15.8
14:20 Uhr
10.3
00:20 Uhr
12.4
23:15 Uhr
7
14:00 Uhr

00:00 Uhr

00:00 Uhr

00:00 Uhr


 
Wetter Information zur Wetteranzeige
Zeitraffer
Tageslänge (hh:mm)
Höchsttemperatur in °C
Uhrzeit
Tiefsttemperatur in °C
Uhrzeit
Luftfeuchte (max., in %)
Uhrzeit
Luftfeuchte (min., in %)
Uhrzeit
Luftdruck (max., in hPa)
Uhrzeit
Luftdruck (min., in hPa)
Uhrzeit
Luftdruck (Ø, in hPa)
Regenrate (max, mm/h)
Uhrzeit
Niederschlag in mm
Verdunstung in mm
Solar in W/m² (Ø)
Solar in W/m² (max.)
UV-Index (max.)
Sonnenscheindauer (hh:mm)
Windrichtung (Ø)
Windstärke (Ø in km/h)
Windstärke (Ø in bft)
Windböe (max., in km/h)
Uhrzeit
Windböe (max., in bft)
Uhrzeit
Taupunkt (max., in °C)
Uhrzeit
Taupunkt (min., in °C)
Uhrzeit
Windchill (min., in °C)
Uhrzeit
Gewitterindex (max.)
Uhrzeit
Waldbrandindex (max.)
Uhrzeit
Graslandfeuerindex (max.)
Uhrzeit
Staubsturm-Index (max.)
Uhrzeit
16
Zeitraffer
16:22
21.4
15:25 Uhr
11.6
23:00 Uhr

95
00:40 Uhr
53
15:45 Uhr
1017.1
23:30 Uhr

1013.8
00:05 Uhr
1015.1
2,400
01:10 Uhr
0,800
2.413
303
981
12:20 Uhr
5.5
13:35 Uhr

05:05:00
1,4
0
22,5
13:40 Uhr

4
15.9
13:15 Uhr
10.1
15:55 Uhr
11.6
23:00 Uhr
7
13:10 Uhr

00:00 Uhr

00:00 Uhr

00:00 Uhr
17
Zeitraffer
16:20
21.0
17:35 Uhr
8.7
05:25 Uhr

95
06:40 Uhr
68
11:00 Uhr
1020.1
23:15 Uhr

1016.9
01:30 Uhr
1018.3
0,000
00:05 Uhr
0,000
1.600
169
579
09:50 Uhr
3.6
12:55 Uhr

01:45:00
0,7
0
17,7
12:30 Uhr

3
16.0
17:55 Uhr
7.8
05:25 Uhr
8.7
05:25 Uhr
7
17:15 Uhr

00:00 Uhr

00:00 Uhr

00:00 Uhr
18
Zeitraffer
16:17
27.9
16:30 Uhr
10.4
03:50 Uhr

95
04:30 Uhr
46
17:50 Uhr
1020.5
00:45 Uhr

1017.4
19:00 Uhr
1019.4
2,400
15:35 Uhr
0,200
3.378
329
935
14:50 Uhr
5.2
13:15 Uhr

06:28:00
0,4
0
11,3
09:40 Uhr

2
18.1
11:05 Uhr
9.5
03:50 Uhr
10.4
03:50 Uhr
10
22:10 Uhr

00:00 Uhr

00:00 Uhr

00:00 Uhr
19
Zeitraffer
16:14
31.1
14:00 Uhr
14.5
05:40 Uhr

95
06:25 Uhr
41
14:05 Uhr
1018.4
00:05 Uhr

1014.2
15:15 Uhr
1016.1
40,800
16:15 Uhr
8,200
2.692
278
997
13:00 Uhr
5.5
12:50 Uhr

04:35:00
0,4
0
22,5
16:15 Uhr

4
19.1
19:05 Uhr
13.2
05:40 Uhr
14.5
05:40 Uhr
12
22:00 Uhr

00:00 Uhr

00:00 Uhr

00:00 Uhr
20
Zeitraffer
16:11
26.1
12:50 Uhr
13.0
23:55 Uhr

95
02:55 Uhr
53
13:35 Uhr
1019.6
23:45 Uhr

1013.5
06:45 Uhr
1015.4
2,400
14:40 Uhr
0,200
2.794
267
821
13:40 Uhr
5.2
13:10 Uhr

04:10:00
1,6
0
29,0
17:10 Uhr

4
21.0
12:30 Uhr
11.6
23:45 Uhr
13.0
23:55 Uhr
12
12:25 Uhr

00:00 Uhr

00:00 Uhr

00:00 Uhr
21
Zeitraffer
16:09
23.6
15:00 Uhr
10.8
05:05 Uhr

94
05:30 Uhr
38
15:00 Uhr
1022.1
23:30 Uhr

1019.7
00:05 Uhr
1020.9
0,000
00:05 Uhr
0,000
3.505
333
960
13:45 Uhr
5.8
12:50 Uhr

06:30:00
1,8
0
30,6
13:30 Uhr

5
13.4
07:55 Uhr
6.7
19:15 Uhr
10.8
05:05 Uhr
4
02:55 Uhr

00:00 Uhr

00:00 Uhr

00:00 Uhr
22
Zeitraffer
16:06
23.3
15:50 Uhr
7.9
05:40 Uhr

93
05:55 Uhr
37
15:50 Uhr
1023.1
09:00 Uhr

1018.9
20:45 Uhr
1021.6
0,000
00:05 Uhr
0,000
3.150
317
951
13:15 Uhr
6.1
12:50 Uhr

05:40:00
1,4
0
24,1
12:00 Uhr

4
11.6
08:35 Uhr
6.7
05:40 Uhr
7.9
05:40 Uhr
3
22:45 Uhr

00:00 Uhr

00:00 Uhr

00:00 Uhr
23
Zeitraffer
16:03
22.7
14:35 Uhr
12.1
23:55 Uhr

94
07:40 Uhr
44
19:05 Uhr
1019.3
00:05 Uhr

1014.5
23:45 Uhr
1017.2
2,400
03:30 Uhr
1,000
2.667
273
1029
13:05 Uhr
6.1
13:05 Uhr

04:10:00
0,6
0
14,5
14:40 Uhr

3
14.1
09:25 Uhr
8.6
19:05 Uhr
12.1
23:55 Uhr
5
09:20 Uhr

00:00 Uhr

00:00 Uhr

00:00 Uhr
24
Zeitraffer
16:01
28.7
17:05 Uhr
9.3
04:20 Uhr

92
04:15 Uhr
34
17:10 Uhr
1014.4
00:05 Uhr

1007.6
17:30 Uhr
1010.8
0,000
00:05 Uhr
0,000
4.013
326
1018
13:25 Uhr
5.8
13:25 Uhr

06:25:00
2,3
1
25,7
14:05 Uhr

4
14.1
22:45 Uhr
8.1
04:05 Uhr
9.3
04:20 Uhr
8
22:45 Uhr

00:00 Uhr

00:00 Uhr

00:00 Uhr
25
Zeitraffer
15:57
26.7
15:35 Uhr
12.3
05:00 Uhr

92
05:50 Uhr
50
17:20 Uhr
1013.6
10:30 Uhr

1011.0
00:05 Uhr
1012.4
0,000
00:05 Uhr
0,000
2.591
241
900
14:50 Uhr
5.3
13:40 Uhr

02:30:00
0,4
0
11,3
13:40 Uhr

2
16.8
19:30 Uhr
10.8
04:50 Uhr
12.3
05:00 Uhr
10
21:50 Uhr

00:00 Uhr

00:00 Uhr

00:00 Uhr
26
Zeitraffer
15:55
26.5
15:10 Uhr
14.5
05:25 Uhr

94
21:45 Uhr
55
15:10 Uhr
1015.7
23:45 Uhr

1008.9
08:00 Uhr
1011.5
80,400
16:05 Uhr
15,200
2.184
208
1043
14:50 Uhr
5.2
14:15 Uhr

02:30:00
1,8
0
25,7
11:10 Uhr

4
19.1
17:55 Uhr
13.4
05:25 Uhr
14.5
05:25 Uhr
10
17:25 Uhr

00:00 Uhr

00:00 Uhr

00:00 Uhr
27
Zeitraffer
15:51
26.8
15:00 Uhr
12.3
04:45 Uhr

95
04:30 Uhr
44
16:10 Uhr
1018.7
08:45 Uhr

1012.5
23:45 Uhr
1016.5
0,000
00:05 Uhr
0,000
2.946
290
870
12:05 Uhr
5.2
12:25 Uhr

05:00:00
0,5
0
14,5
10:45 Uhr

3
18.0
19:20 Uhr
11.3
05:05 Uhr
12.3
04:45 Uhr
10
21:00 Uhr

00:00 Uhr

00:00 Uhr

00:00 Uhr
28
Zeitraffer
15:48
19.2
00:05 Uhr
18.1
01:15 Uhr

85
01:10 Uhr
79
00:05 Uhr
1012.3
00:05 Uhr

1011.5
01:15 Uhr
1012.0
0,000
00:05 Uhr
0,000
0.025
0
0
00:05 Uhr
0.0
00:05 Uhr

00:00:00
0,0
0
3,2
00:45 Uhr

1
15.7
00:35 Uhr
15.4
00:05 Uhr
18.1
01:15 Uhr
10
00:35 Uhr

00:00 Uhr

00:00 Uhr

00:00 Uhr
29
Zeitraffer
15:45
24.7
16:05 Uhr
12.3
23:55 Uhr

83
04:45 Uhr
40
16:55 Uhr
1019.0
23:15 Uhr

1014.3
02:15 Uhr
1017.3
0,000
02:15 Uhr
0,000
3.632
308
1027
13:35 Uhr
5.2
12:35 Uhr

05:15:00
3,7
1
29,0
13:15 Uhr

4
13.1
02:20 Uhr
8.4
23:35 Uhr
12.3
23:55 Uhr
7
02:20 Uhr

00:00 Uhr

00:00 Uhr

00:00 Uhr
30
Zeitraffer
15:42
25.1
15:25 Uhr
7.8
05:25 Uhr

92
05:40 Uhr
36
16:40 Uhr
1021.6
09:15 Uhr

1018.9
19:45 Uhr
1020.2
0,000
00:05 Uhr
0,000
4.140
392
790
13:45 Uhr
5.6
13:15 Uhr

09:35:00
2,2
1
27,4
11:25 Uhr

4
11.5
12:25 Uhr
6.4
05:05 Uhr
7.8
05:25 Uhr
3
12:25 Uhr

00:00 Uhr

00:00 Uhr

00:00 Uhr
31
Zeitraffer
15:39
27.7
15:55 Uhr
9.3
05:15 Uhr

90
07:00 Uhr
34
16:10 Uhr
1019.9
06:30 Uhr

1017.4
18:15 Uhr
1018.8
0,000
00:05 Uhr
0,000
4.140
396
788
13:25 Uhr
5.5
12:40 Uhr

10:10:00
1,5
0
22,5
13:35 Uhr

4
12.9
11:35 Uhr
7.4
04:45 Uhr
9.3
05:15 Uhr
4
10:25 Uhr

00:00 Uhr

00:00 Uhr

00:00 Uhr
Stationsstandorte || Wetterblog || Wissenswertes || Downloads || Seitenhistorie || Partner || Impressum / Datenschutz